GFSMW_2pvu_pres_024.txt.gz
Presure
206 203 196 200 176 181 137 128 135 188 165 180 173 172 158 173 181 188 116 121 191 194 124 121 202 186 196 203 199 204 212 206 205 197 206 173 162 164 171 214 225 222 225
197 196 193 198 201 209 209 119 194 179 194 192 191 187 173 183 184 191 139 133 178 140 203 198 166 183 101 210 209 206 203 194 201 218 216 228 218 228 223 216 218 220 221
190 197 197 196 196 192 184 118 144 178 169 178 185 187 192 188 180 167 186 195 198 187 152 181 179 204 164 208 191 158 208 213 205 209 231 235 230 245 272 216 253 163 153
192 188 186 133 185 184 180 129 146 157 175 171 181 184 189 193 196 176 189 153 150 205 204 203 202 199 195 222 216 224 225 244 225 235 226 224 240 257 275 277 257 271 270
180 177 174 169 179 178 180 176 177 171 164 182 186 195 200 197 195 192 194 200 203 201 204 204 195 216 232 221 220 217 255 271 262 256 258 193 252 135 270 281 255 272 278
169 166 170 177 174 175 172 160 174 174 178 174 184 175 195 199 201 204 207 198 200 205 224 209 143 220 233 253 247 249 264 272 267 271 269 262 267 282 280 286 285 202 297
183 180 178 178 171 177 175 173 180 182 181 191 201 199 194 201 198 203 215 211 212 212 216 216 224 229 260 260 264 269 283 280 278 267 272 274 291 294 302 303 298 298 308
185 181 174 172 179 170 175 182 183 189 197 199 195 195 200 203 210 213 215 217 213 210 221 206 233 247 267 268 282 287 281 287 294 280 290 308 307 308 304 308 323 317 313
180 170 174 172 176 158 179 180 192 193 196 201 197 195 203 197 213 211 210 210 213 220 227 229 256 274 288 301 304 297 305 306 309 308 320 313 311 309 317 284 285 307 317
173 175 184 183 182 179 182 197 195 194 195 196 197 206 177 211 209 209 206 218 218 234 236 253 289 310 316 316 318 317 324 325 325 315 287 354 351 360 344 340 346 324 290
175 123 178 180 188 197 193 123 193 142 129 125 185 133 210 211 205 204 206 228 234 233 253 290 321 325 331 293 293 297 388 401 424 419 412 407 398 401 398 397 391 390 391
183 179 175 203 198 189 190 120 183 126 124 207 177 181 213 213 211 205 231 250 254 268 322 336 331 323 286 431 426 415 402 393 383 379 380 393 379 375 373 378 383 398 382
192 201 197 188 179 121 175 192 201 194 202 207 220 212 220 211 209 241 237 274 292 336 341 321 290 437 420 410 416 416 415 415 408 403 395 392 390 390 389 386 382 371 380
181 132 188 144 190 175 191 195 202 206 212 217 211 220 215 208 248 251 276 324 323 335 284 450 425 436 426 420 413 410 408 408 413 411 404 397 388 384 378 383 386 390 399
197 191 188 188 193 196 197 209 204 205 215 216 214 227 242 254 257 306 321 340 315 383 437 427 427 416 405 395 389 384 380 375 377 389 399 398 398 391 388 387 387 387 385
191 189 191 199 198 197 211 212 133 218 224 222 227 259 263 275 335 313 340 277 374 429 408 417 401 391 383 374 370 365 361 357 358 363 370 386 392 388 387 386 386 380 377
190 194 195 199 206 208 216 217 221 224 229 248 265 301 311 325 318 337 282 444 423 406 404 387 379 370 366 362 357 352 346 342 343 346 351 358 363 370 375 370 364 362 354
199 200 201 202 214 213 224 224 231 251 309 312 313 328 316 321 310 285 436 417 403 391 377 372 365 361 359 360 358 355 354 354 355 354 350 350 355 362 359 353 346 345 347
200 203 212 224 211 225 227 253 262 265 336 333 323 316 325 286 287 432 413 400 387 378 366 365 361 374 370 359 353 347 343 339 337 341 353 355 344 347 345 339 334 340 352
211 205 223 211 227 235 240 267 349 317 313 286 317 333 287 291 433 408 396 386 378 366 364 363 371 349 346 357 348 344 343 344 343 339 339 351 349 339 339 339 323 328 334
226 227 233 235 233 258 270 286 327 318 321 327 314 275 309 434 407 392 388 373 367 360 367 357 347 348 341 337 381 464 473 463 345 346 319 340 354 350 340 335 320 306 323
226 243 227 271 275 277 337 312 326 332 331 269 287 368 429 407 387 380 371 366 361 369 350 344 341 336 432 454 451 451 454 469 446 330 341 336 351 337 315 323 304 302 294
243 275 301 264 332 287 318 332 285 263 279 301 418 418 404 385 371 368 364 356 367 348 344 333 349 427 443 435 433 441 452 464 479 485 331 314 331 309 335 313 306 294 299
342 339 322 299 286 279 277 279 284 299 352 422 408 396 380 367 361 365 355 362 351 340 331 320 359 434 427 424 431 433 449 466 458 446 320 322 314 305 317 304 297 291 296
349 334 284 270 285 289 290 293 332 430 416 401 381 369 364 360 356 356 354 358 335 331 318 354 429 424 422 421 428 433 442 432 420 406 370 334 312 320 315 296 293 301 287
284 263 272 278 285 279 322 440 422 410 397 378 371 367 361 351 357 353 357 334 335 323 348 355 418 403 399 406 416 424 414 400 392 377 330 315 338 325 309 294 285 291 282

GFSMW_2pvu_pres_030.txt.gz
Presure
243 236 197 206 201 201 211 215 193 192 183 177 189 190 182 180 183 184 180 186 185 189 201 205 126 203 203 202 195 202 109 200 120 196 205 129 202 203 103 217 209 207 223
206 204 185 198 209 208 199 195 184 195 196 195 184 184 177 181 185 188 188 189 200 210 194 189 202 199 194 132 198 199 204 211 208 204 208 216 213 209 206 203 206 214 221
201 207 204 204 201 196 193 182 190 187 188 185 179 179 185 191 186 191 198 204 204 199 192 191 195 200 189 201 170 203 206 212 211 213 224 222 221 219 215 183 207 214 222
192 200 200 202 199 192 184 189 182 185 184 179 182 188 188 182 193 201 202 192 193 133 202 198 119 126 195 189 215 217 221 196 195 231 232 223 222 205 237 216 238 252 256
199 192 200 194 190 187 185 178 182 179 179 178 184 182 186 190 198 198 191 192 179 191 134 123 163 134 127 146 219 221 233 234 232 237 243 241 250 255 260 267 255 253 257
189 197 196 190 186 180 185 181 177 183 181 182 183 184 182 182 186 195 184 130 145 187 145 199 203 218 221 219 228 231 239 234 240 250 245 257 255 262 269 288 286 291 326
198 191 188 182 180 181 186 183 176 177 181 183 181 181 185 192 199 162 122 189 185 208 210 214 223 233 233 229 234 234 239 249 249 251 266 283 343 337 333 329 335 336 335
188 191 182 181 184 187 178 183 176 173 179 181 183 198 191 191 191 198 189 187 203 188 222 219 244 241 237 239 233 251 253 263 263 339 299 336 336 338 341 349 307 288 308
178 194 184 182 173 187 174 179 182 180 134 185 189 190 187 201 200 193 202 205 200 236 242 231 237 242 252 253 254 256 265 344 285 354 354 339 306 302 453 444 438 430 439
192 186 179 181 183 152 182 185 154 144 173 187 193 192 186 190 192 210 229 234 227 226 250 250 251 260 264 261 268 295 281 337 313 294 284 339 436 447 445 434 424 409 401
178 171 178 177 173 174 187 101 180 193 194 192 191 199 162 200 216 197 237 232 235 249 262 273 279 360 356 354 296 291 288 283 426 429 417 408 405 406 412 419 424 413 406
172 181 180 93 187 182 124 187 189 184 191 196 198 206 220 221 222 236 244 244 256 267 262 309 291 317 310 328 289 299 434 427 415 403 393 386 384 381 380 385 393 405 417
183 181 182 179 182 184 112 177 193 197 176 199 204 222 225 231 245 244 241 260 279 255 312 308 298 306 303 291 417 425 413 408 395 388 381 373 369 367 364 365 371 378 386
179 176 180 139 150 168 134 201 202 204 202 209 222 225 236 238 246 245 264 280 310 322 316 304 319 319 376 431 414 398 395 387 383 375 371 371 368 362 360 357 356 359 366
183 184 187 181 190 197 203 193 197 204 210 229 224 236 242 248 265 275 303 334 327 324 325 326 338 441 420 409 392 384 378 376 373 375 375 369 367 365 368 373 356 347 347
180 183 183 189 196 204 198 201 212 213 225 221 236 251 266 263 342 340 338 337 335 333 338 434 425 411 398 387 376 373 371 378 367 359 354 354 354 351 341 350 369 354 343
171 183 189 197 199 197 203 209 216 227 229 247 257 273 288 346 345 340 338 336 337 412 418 408 397 384 376 371 372 375 368 356 353 351 349 352 357 348 347 344 347 368 352
184 191 192 196 197 202 212 226 229 243 252 269 266 257 349 329 326 333 348 396 420 406 397 386 373 371 367 373 377 361 353 345 339 378 421 455 459 465 392 338 338 352 362
189 188 201 205 210 220 233 236 234 243 252 326 268 342 331 342 357 426 426 413 402 394 383 374 365 370 367 372 355 348 340 367 438 446 444 439 444 456 463 336 326 338 349
191 200 212 213 217 229 224 248 241 250 292 261 333 331 349 435 428 418 434 454 431 406 381 369 373 364 366 351 339 337 356 416 418 429 445 440 449 456 467 337 322 335 354
210 214 220 217 231 226 240 233 254 285 259 339 337 391 433 417 432 461 479 457 432 411 389 374 362 361 349 338 325 349 371 405 412 429 443 450 463 474 485 339 325 343 359
215 213 225 237 227 239 238 251 263 302 340 364 446 433 442 450 414 386 374 384 414 384 370 362 357 342 336 323 344 356 398 401 423 444 456 460 463 466 447 340 315 358 345
212 228 234 234 239 242 246 273 314 341 439 446 474 474 415 389 486 396 372 366 369 371 359 356 335 330 320 339 340 395 391 416 438 439 435 436 438 443 323 326 358 348 336
230 232 234 231 243 240 252 320 301 425 445 468 422 399 513 512 431 395 379 384 370 361 356 333 325 316 340 335 361 387 402 431 421 413 411 413 410 330 322 354 349 338 317
221 234 232 238 244 252 301 347 453 457 445 410 395 483 485 430 416 395 375 362 364 349 330 322 313 333 332 339 390 383 422 411 401 396 395 387 352 315 349 343 342 315 302
230 242 232 242 256 314 334 450 471 440 407 388 389 420 413 388 373 358 363 362 338 328 317 311 341 327 334 336 398 378 415 395 387 384 375 359 330 311 322 343 305 308 295

GFSMW_2pvu_pres_036.txt.gz
Presure
239 215 217 228 222 224 239 225 220 196 211 191 201 198 205 196 189 193 188 185 190 192 184 185 187 190 190 195 195 184 196 195 197 196 195 193 190 193 196 208 216 211 212
229 225 226 222 221 231 224 219 195 209 201 197 196 204 185 193 189 187 191 188 189 177 188 197 195 195 215 196 194 205 200 147 124 193 201 214 210 141 169 188 117 195 219
224 218 214 215 212 224 210 202 206 199 201 196 187 188 192 191 194 194 191 180 191 197 194 199 203 201 193 202 199 189 194 200 199 222 220 219 219 219 214 216 218 217 180
219 225 222 219 222 228 210 197 191 194 195 187 190 181 196 198 184 188 186 194 193 195 202 186 196 202 212 206 203 210 219 227 224 218 235 226 236 241 245 236 224 229 219
232 237 215 211 209 196 204 204 203 194 191 188 193 202 184 186 185 190 187 195 198 194 194 201 204 200 205 215 223 226 228 230 221 237 234 232 235 248 252 260 300 298 285
203 214 204 205 204 208 198 195 193 187 185 195 193 187 182 179 190 190 107 109 125 193 201 194 204 213 215 222 220 233 232 229 239 248 245 276 295 287 296 298 262 361 355
226 204 208 200 189 197 200 194 188 191 192 196 196 178 179 173 187 182 159 179 195 199 193 200 209 216 222 225 238 249 244 243 263 275 286 263 250 337 358 353 330 352 346
201 197 191 183 195 187 179 186 192 191 189 178 185 192 196 187 179 186 193 200 201 192 199 209 217 226 236 244 248 232 258 272 283 287 311 340 346 343 338 329 327 343 378
192 195 181 186 182 185 183 195 186 182 185 189 189 193 184 181 147 195 195 196 205 199 217 220 234 240 245 239 268 277 287 300 301 348 349 376 384 405 439 458 454 452 464
195 192 190 194 211 217 211 180 181 191 190 189 186 182 185 193 192 201 202 204 203 219 237 248 264 246 263 270 284 313 317 347 419 425 433 434 432 436 429 421 415 417 422
216 216 210 207 198 190 179 184 187 182 182 184 181 188 190 202 198 205 213 218 227 249 250 251 246 256 268 278 346 429 448 442 437 429 423 416 406 401 398 393 394 396 399
201 202 210 206 177 179 191 185 177 183 184 177 179 196 198 194 197 226 226 225 245 250 270 267 267 271 280 444 444 437 427 420 413 408 401 395 388 382 377 377 380 381 380
204 199 174 176 178 189 187 176 182 180 179 180 194 195 213 215 222 221 236 247 252 260 246 273 271 378 444 434 447 439 431 420 410 399 392 385 375 372 375 379 380 374 375
182 193 190 180 181 185 177 185 177 182 184 197 201 200 220 227 216 238 240 263 268 270 274 351 463 466 461 480 453 434 439 420 408 397 386 375 377 380 380 375 367 363 361
202 196 193 193 191 184 185 181 185 195 204 204 209 220 223 227 241 257 256 262 266 277 426 475 449 435 421 394 387 380 427 409 395 384 378 375 372 368 362 357 353 352 352
197 195 192 186 181 181 182 189 200 194 205 217 218 225 231 243 255 253 272 288 328 442 470 445 409 394 386 401 382 380 404 388 375 371 361 355 351 352 348 355 366 376 426
194 189 184 175 181 186 172 193 196 206 214 221 227 238 241 251 261 282 275 403 467 480 424 398 439 459 451 385 373 381 375 363 352 346 343 338 340 349 372 404 407 417 436
181 177 178 180 186 183 200 205 207 210 226 229 232 244 248 263 259 363 481 475 441 409 397 444 454 439 386 382 377 372 355 342 337 337 348 353 382 407 426 438 441 443 449
175 180 187 179 200 203 203 208 223 227 233 235 237 243 246 263 376 516 471 424 401 455 453 454 419 394 378 367 363 341 328 330 344 344 354 407 450 454 453 458 459 455 452
188 190 197 206 205 200 221 231 222 231 227 239 240 263 261 303 511 458 416 400 400 460 423 398 380 373 368 350 332 325 346 336 342 349 401 438 428 428 434 442 456 465 467
200 202 205 200 220 224 225 225 229 236 235 239 253 254 313 506 456 414 385 395 402 400 390 381 367 351 335 325 330 340 332 345 346 377 426 417 413 419 422 433 446 461 476
195 204 215 227 216 216 233 241 254 253 262 246 244 379 505 462 410 384 365 392 400 374 351 345 346 332 317 333 329 329 345 346 347 394 413 406 406 409 421 432 445 457 405
208 220 225 212 214 237 252 253 258 232 245 307 336 469 476 416 388 366 359 373 355 348 343 343 320 318 324 328 307 307 345 343 385 409 403 397 397 407 409 418 337 321 328
218 224 215 223 239 250 253 248 238 248 296 347 462 492 438 392 373 357 359 359 350 346 331 323 323 307 330 319 303 307 337 343 391 405 398 393 389 373 352 324 323 317 349
217 218 229 235 244 251 243 239 276 293 320 458 469 454 408 374 352 350 348 348 343 332 325 320 322 305 336 320 307 309 329 339 399 402 393 388 373 353 326 315 311 344 336
222 226 235 244 251 246 278 288 290 318 411 444 452 428 388 364 350 349 344 341 336 324 324 313 323 305 337 319 309 309 313 341 386 394 391 383 363 341 320 309 305 330 332

GFSMW_2pvu_pres_042.txt.gz
Presure
209 207 208 210 230 229 220 223 239 237 249 213 217 203 202 205 203 199 197 196 189 196 196 199 186 189 184 183 192 190 185 178 186 185 193 196 194 189 189 194 197 199 197
227 225 222 221 225 221 224 219 220 225 223 219 213 217 212 204 196 195 193 191 195 187 186 191 190 195 192 189 176 159 177 184 193 196 193 191 195 194 195 200 201 214 216
221 218 219 217 220 216 212 217 226 230 229 214 209 213 224 202 190 188 184 188 187 187 190 191 190 175 182 175 175 187 185 194 193 194 197 199 204 212 210 213 220 215 209
214 230 232 240 243 247 250 248 245 244 243 231 215 206 207 203 195 187 190 182 188 195 203 186 164 181 179 192 193 193 201 199 211 214 225 227 233 238 236 220 229 230 228
254 239 226 214 212 210 204 197 193 193 191 187 187 193 192 188 187 191 191 201 215 192 192 201 181 185 192 193 200 196 205 216 216 228 231 229 220 228 233 235 252 237 242
213 214 209 203 199 193 197 200 210 203 203 200 193 194 194 196 205 214 219 196 182 195 202 189 192 192 195 196 199 212 211 224 233 232 239 228 234 254 267 274 275 281 284
198 196 195 194 202 207 206 203 207 212 215 222 221 217 212 207 203 202 186 194 201 191 192 192 194 196 199 208 213 210 237 239 239 258 266 269 272 277 273 329 398 447 469
194 208 204 202 202 204 209 212 209 208 212 213 208 194 187 198 202 205 203 186 189 193 186 195 196 209 211 206 207 257 271 276 267 253 261 282 333 452 459 465 470 492 485
198 195 199 200 203 201 209 211 206 203 199 193 214 214 211 206 200 182 190 186 188 188 193 195 198 209 232 259 270 263 255 242 293 294 361 482 480 463 465 468 427 440 481
199 201 197 197 193 201 202 199 204 206 200 205 211 207 201 186 184 189 185 184 189 197 232 237 240 260 271 264 274 283 300 323 321 484 489 474 439 414 402 400 397 393 400
191 190 193 188 187 192 197 197 195 193 193 206 207 195 189 182 184 183 187 198 202 228 234 255 254 253 290 303 319 303 470 475 445 439 425 405 454 465 446 423 397 436 429
215 220 223 224 219 188 191 188 192 193 205 198 194 184 184 183 190 199 196 228 231 235 230 254 250 286 306 305 429 478 446 425 411 409 456 495 435 408 387 395 395 393 395
218 227 224 227 230 225 221 211 202 200 193 184 189 196 199 203 219 233 236 228 238 241 251 255 278 300 314 518 456 429 409 439 451 462 431 405 394 391 387 375 369 365 364
217 219 225 218 216 217 203 193 189 178 189 194 199 216 217 222 231 226 230 231 240 255 252 236 308 321 482 445 415 441 482 466 438 407 399 386 370 359 350 343 345 350 350
214 223 220 212 210 202 199 194 189 188 196 212 211 223 229 231 221 234 229 235 261 252 273 311 395 468 435 407 388 416 403 384 375 366 350 337 351 356 341 342 355 362 364
239 226 225 223 200 192 195 182 193 210 216 214 208 224 228 225 237 232 235 265 260 272 323 392 469 435 403 383 368 373 366 362 347 334 332 365 330 323 318 355 361 379 441
247 231 204 184 190 192 191 208 212 205 217 216 224 229 234 230 226 247 259 251 271 322 468 474 442 408 379 362 364 368 360 337 332 325 351 334 320 319 338 365 430 421 419
197 195 194 196 192 196 209 208 215 213 215 215 226 235 228 226 255 252 248 265 300 464 449 452 415 384 367 356 358 351 338 330 335 324 347 329 321 322 368 425 411 407 411
199 193 193 202 195 205 206 213 207 215 217 212 236 238 238 260 254 258 263 292 401 454 460 428 393 368 355 353 351 337 333 326 326 316 338 322 322 353 422 412 401 415 421
188 191 202 200 204 216 201 214 210 221 224 240 239 251 252 238 265 270 287 370 447 449 439 403 374 356 348 351 346 324 325 309 317 335 327 321 319 369 415 397 388 394 410
191 202 205 204 212 204 210 212 218 229 239 249 257 230 260 268 265 283 348 407 454 443 417 380 366 357 349 346 337 321 310 319 330 332 320 319 312 412 408 382 376 369 371
202 204 204 208 203 213 213 222 225 239 241 250 246 263 267 281 347 358 400 454 447 423 387 364 362 358 351 344 331 309 326 338 337 319 316 317 309 411 401 372 358 355 342
202 204 206 211 207 215 214 224 239 241 244 251 245 262 299 315 309 398 381 455 435 399 367 362 365 357 329 325 310 341 352 343 319 305 310 318 314 362 397 366 342 324 319
205 208 210 213 211 216 223 236 246 248 254 246 249 271 269 279 413 378 454 444 417 378 356 355 347 328 321 310 353 314 321 320 332 340 341 338 334 342 396 361 335 321 313
211 210 214 210 214 224 212 249 256 249 250 261 266 270 326 397 391 366 452 429 394 363 346 334 327 326 316 327 327 319 316 315 320 334 345 349 344 338 396 363 333 318 306
213 214 213 214 224 232 238 262 256 245 260 273 277 278 362 402 368 408 439 410 374 353 339 331 327 321 323 317 311 317 312 309 313 322 346 355 349 334 400 376 333 312 307

GFSMW_2pvu_pres_045.txt.gz
Presure
202 203 208 210 204 210 213 242 230 219 229 201 207 205 206 218 234 211 203 206 205 196 202 202 184 187 190 184 189 197 201 197 168 184 180 178 180 191 189 190 192 189 194
203 215 218 242 222 234 214 222 228 221 233 223 222 225 227 222 213 210 214 212 206 189 185 191 186 188 190 195 201 184 181 183 192 194 190 187 188 190 190 185 192 196 197
227 226 222 219 214 229 246 249 246 244 227 224 203 202 195 191 190 194 198 206 198 195 195 193 194 199 205 213 192 181 187 193 195 188 183 186 193 194 199 203 206 207 205
215 217 215 245 239 229 218 211 207 203 202 201 193 200 208 204 199 198 203 205 205 204 201 203 203 196 192 185 190 195 202 194 192 201 200 203 222 219 238 229 223 242 244
249 236 222 212 208 207 202 201 198 193 193 199 189 189 194 193 199 206 206 205 203 200 197 198 206 204 205 204 187 192 194 202 211 211 218 223 229 230 238 238 247 242 249
212 205 205 201 196 192 193 208 206 200 206 207 206 218 216 212 206 198 194 210 214 210 211 206 200 183 188 194 198 203 207 198 212 212 225 262 244 270 265 319 335 296 278
201 195 194 193 201 204 201 204 206 203 198 202 206 205 203 201 197 196 210 221 214 208 202 198 196 199 201 196 208 204 212 217 226 229 257 278 312 295 330 355 427 492 500
193 205 206 201 200 202 200 200 194 202 202 199 195 199 199 200 199 215 206 205 200 195 197 201 199 193 207 200 215 227 236 239 257 278 287 324 323 348 477 478 489 480 459
197 196 193 197 195 197 207 225 229 230 230 229 232 233 222 209 205 199 190 192 192 196 199 195 222 217 218 227 256 271 260 268 283 320 323 360 466 445 431 414 421 497 489
194 197 201 208 206 208 220 225 226 228 229 226 219 209 202 192 189 187 191 189 192 195 199 235 233 228 249 260 267 249 269 294 322 400 463 443 429 452 483 491 453 439 429
188 203 203 202 207 213 220 217 223 218 213 210 199 192 192 187 184 184 190 198 218 206 203 239 239 259 260 251 265 283 309 356 470 444 422 428 483 461 430 415 410 405 400
201 199 201 208 213 229 221 220 206 212 204 194 192 189 184 188 197 211 201 208 247 241 248 259 257 244 240 264 295 296 457 447 427 408 393 395 392 389 380 369 361 357 357
196 201 201 220 244 255 263 229 210 203 190 182 190 187 190 215 220 219 240 243 257 262 249 243 264 267 309 310 343 457 446 422 401 384 377 376 372 357 344 339 367 357 348
210 206 214 220 237 238 207 202 197 189 192 196 187 193 210 214 218 241 248 241 250 246 234 254 290 298 294 374 464 444 418 396 382 369 371 356 344 340 332 345 344 335 332
211 212 219 215 203 199 199 192 189 193 194 196 215 213 213 217 225 244 247 247 250 235 251 270 279 275 325 457 446 418 398 379 366 370 351 343 342 338 328 349 339 334 334
205 214 214 207 200 202 190 186 197 197 199 217 207 212 220 205 241 244 243 242 241 262 271 276 303 323 414 453 422 398 376 365 358 352 339 338 334 325 343 340 332 334 398
213 204 226 201 198 190 192 198 200 201 214 214 207 212 214 235 245 251 254 235 258 285 289 284 319 396 451 430 400 380 366 356 353 339 329 326 313 335 336 329 328 389 418
201 208 219 217 195 191 197 193 202 214 205 210 205 213 234 239 252 251 235 256 268 273 263 342 388 445 435 407 382 365 363 352 345 331 325 318 338 339 329 325 324 414 395
207 206 209 219 193 201 193 200 211 208 210 205 216 231 240 257 248 250 249 268 291 273 358 394 374 441 413 383 369 361 357 349 337 320 326 346 342 326 323 326 391 396 378
197 208 212 202 201 193 204 211 208 205 212 216 230 239 253 255 247 247 268 282 268 360 403 372 449 420 388 369 366 361 356 330 315 349 348 335 322 312 318 330 413 376 360
203 208 205 198 209 202 205 212 202 205 220 217 237 250 251 247 261 247 267 275 340 384 377 392 434 398 370 367 366 344 325 317 336 321 326 332 345 349 352 345 407 364 350
206 206 199 208 203 206 208 209 213 199 220 231 245 259 246 252 252 262 273 267 380 388 365 443 409 374 355 340 331 327 323 330 325 318 317 323 341 353 355 342 400 354 336
216 211 207 203 208 207 216 213 205 218 227 246 262 250 250 249 253 267 289 366 398 374 362 423 385 361 343 336 328 326 326 318 321 324 314 322 342 367 356 337 397 347 327
229 203 205 211 206 220 215 176 214 228 243 263 245 253 247 251 267 278 375 351 382 362 433 397 367 351 336 329 323 322 315 310 310 325 317 319 338 377 361 341 398 345 327
205 208 213 209 217 219 211 221 225 231 258 197 253 258 247 266 278 281 332 380 369 352 416 382 359 344 336 325 322 310 305 304 301 304 314 314 326 379 374 347 398 350 330
212 212 212 218 217 219 221 191 236 263 214 252 251 250 262 292 255 342 385 369 360 341 404 372 353 343 323 325 316 303 305 303 303 301 301 310 317 336 387 364 358 380 333